Waarnemingen

Advertentie
Mijn weer
Albi, Frankrijk (7632): temperatuur & dauwpunt: 27.05.2020 11:00:00 - 02.06.2020 11:00:00 (CEST)Albi, Frankrijk (7632): temperatuur 5cm: 27.05.2020 11:00:00 - 02.06.2020 11:00:00 (CEST)Albi, Frankrijk (7632): temperatuur -20cm & temperatuur -100cm: 27.05.2020 11:00:00 - 02.06.2020 11:00:00 (CEST)Albi, Frankrijk (7632): windsnelheid & windstoten: 27.05.2020 11:00:00 - 02.06.2020 11:00:00 (CEST)Albi, Frankrijk (7632): windrichting: 27.05.2020 11:00:00 - 02.06.2020 11:00:00 (CEST)Albi, Frankrijk (7632): luchtdruk: 27.05.2020 11:00:00 - 02.06.2020 11:00:00 (CEST)Albi, Frankrijk (7632): zicht: 27.05.2020 11:00:00 - 02.06.2020 11:00:00 (CEST)Albi, Frankrijk (7632): Zonneschijnduur: 27.05.2020 11:00:00 - 02.06.2020 11:00:00 (CEST)Albi, Frankrijk (7632): neerslag: 27.05.2020 11:00:00 - 02.06.2020 11:00:00 (CEST)
Datum & Tijd tt [°C] td [°C] tt 5cm [°C] tt -20cm [°C] tt -100cm [°C] ff [km/u] ff [kn] fx [km/u] fx [kn] dd ppp [hPa] vv [km] sd [min] rr [mm]
02.06.2020 11:00:00 - - - - - - - - - - - - - -
02.06.2020 10:00:00 21,1 14,0 24,2 21,0 17,9 4 2 10 5 O 1016,8 20 60 0,0
02.06.2020 09:00:00 19,3 13,9 19,0 21,1 17,9 4 2 9 5 ONO 1016,6 20 60 0,0
02.06.2020 08:00:00 16,8 13,1 14,6 21,2 17,9 6 4 9 5 ONO 1016,7 20 60 0,0
02.06.2020 07:00:00 15,1 13,1 12,7 21,3 17,9 3 2 12 7 O 1016,7 20 20 0,0
02.06.2020 06:00:00 14,4 12,8 13,0 21,3 17,9 4 2 9 5 O 1016,4 20 0 0,0
02.06.2020 05:00:00 15,1 13,6 13,4 21,4 17,9 5 3 14 8 ONO 1016,4 20 0 0,0
02.06.2020 04:00:00 15,0 14,0 13,4 21,4 17,9 6 3 7 4 O 1016,4 20 0 0,0
02.06.2020 03:00:00 15,3 14,2 13,9 21,4 17,9 4 2 6 4 O 1016,5 20 0 0,0
02.06.2020 02:00:00 15,5 14,4 14,6 21,4 17,9 4 2 8 4 ZW 1016,9 20 0 0,0
02.06.2020 01:00:00 16,7 14,5 14,5 21,5 17,9 0 0 16 9 N 1016,8 20 0 0,0
02.06.2020 00:00:00 16,8 14,1 15,7 21,5 17,9 7 4 23 12 ONO 1017,3 20 0 0,6
01.06.2020 23:00:00 18,1 13,8 15,8 21,5 17,9 12 7 45 24 N 1017,8 6 0 3,5
01.06.2020 22:00:00 20,3 14,4 18,4 21,4 17,9 4 2 6 4 Z 1015,7 3,6 0 0,0
01.06.2020 21:00:00 21,8 14,2 20,6 21,4 17,8 6 3 12 7 ZZO 1014,9 20 20 0,0
01.06.2020 20:00:00 22,9 14,2 23,6 21,4 17,8 8 4 17 9 ZO 1015,0 20 42 0,0
01.06.2020 19:00:00 23,7 15,2 25,3 21,3 17,8 10 5 21 11 O 1014,6 20 40 0,0
01.06.2020 18:00:00 23,1 14,9 23,2 21,2 17,8 12 6 29 16 ZO 1014,8 20 9 0,0
01.06.2020 17:00:00 22,3 15,2 21,6 21,2 17,8 16 9 29 16 ZZO 1014,3 20 0 0,0
01.06.2020 16:00:00 24,2 13,7 24,8 21,1 17,8 12 6 23 13 Z 1015,0 20 0 0,0
01.06.2020 15:00:00 25,8 13,0 29,5 21,0 17,8 12 7 27 14 ZZO 1014,6 20 30 0,0
01.06.2020 14:00:00 25,8 12,6 28,0 21,0 17,7 5 3 24 13 Z 1014,6 20 30 0,0
01.06.2020 13:00:00 24,6 12,5 27,5 21,0 17,8 10 5 24 13 OZO 1014,6 20 24 0,0
01.06.2020 12:00:00 24,7 13,6 26,4 21,0 17,8 12 6 21 12 OZO 1014,4 20 49 0,0
01.06.2020 11:00:00 23,1 13,8 28,2 21,1 17,8 9 5 22 12 NO 1014,6 20 60 0,0
01.06.2020 10:00:00 21,1 13,0 22,0 21,1 17,8 7 4 16 9 ONO 1015,1 20 52 0,0
01.06.2020 09:00:00 18,9 12,6 18,8 21,2 17,8 13 7 22 12 ONO 1015,0 20 47 0,0
01.06.2020 08:00:00 17,4 12,3 16,6 21,2 17,7 12 6 18 10 ONO 1015,0 20 30 0,0
01.06.2020 07:00:00 16,8 11,9 14,2 21,3 17,8 10 5 15 8 ONO 1014,6 20 13 0,0
01.06.2020 06:00:00 16,4 11,8 15,1 21,4 17,8 8 4 18 10 ONO 1013,9 20 0 0,0
01.06.2020 05:00:00 16,7 11,8 15,2 21,4 17,8 13 7 21 11 ONO 1013,7 20 0 0,0
01.06.2020 04:00:00 16,3 12,1 14,6 21,5 17,7 11 6 19 10 O 1013,8 20 0 0,0
01.06.2020 03:00:00 16,6 12,3 15,3 21,5 17,7 11 6 16 9 ONO 1013,9 20 0 0,0
01.06.2020 02:00:00 16,5 12,3 14,9 21,6 17,7 9 5 17 9 O 1014,1 20 0 0,0
01.06.2020 01:00:00 16,9 12,2 14,8 21,6 17,7 9 5 13 7 O 1014,1 20 0 0,0
01.06.2020 00:00:00 17,8 12,0 15,8 21,6 17,7 6 3 14 8 O 1014,0 20 0 0,0
31.05.2020 23:00:00 19,0 12,5 17,6 21,6 17,7 9 5 24 13 O 1013,9 20 0 0,0
31.05.2020 22:00:00 20,2 12,9 19,1 21,5 17,7 15 8 24 13 ZO 1013,5 20 2 0,0
31.05.2020 21:00:00 22,1 13,2 21,9 21,5 17,7 12 7 25 13 ZO 1012,6 20 57 0,0
31.05.2020 20:00:00 23,8 13,3 25,9 21,4 17,7 15 8 35 19 ZO 1011,8 20 60 0,0
31.05.2020 19:00:00 25,1 13,6 29,5 21,3 17,7 18 10 32 17 ZZO 1010,9 20 60 0,0
31.05.2020 18:00:00 26,5 14,3 31,7 21,2 17,7 16 9 30 16 ZO 1011,0 20 60 0,0
31.05.2020 17:00:00 27,3 14,3 31,7 21,1 17,7 16 9 32 17 ZZO 1011,2 20 57 0,0
31.05.2020 16:00:00 27,1 13,1 32,4 21,0 17,7 14 8 27 15 ZZO 1011,4 20 58 0,0
31.05.2020 15:00:00 26,6 13,3 28,1 20,9 17,7 16 9 27 15 ZO 1011,9 20 41 0,0
31.05.2020 14:00:00 26,8 13,9 28,2 20,9 17,7 14 8 31 17 ZZO 1012,1 20 53 0,0
31.05.2020 13:00:00 26,0 12,4 31,7 20,9 17,7 8 4 23 12 ZZO 1012,4 20 56 0,0
31.05.2020 12:00:00 25,2 13,4 31,7 20,9 17,6 10 5 20 11 OZO 1012,6 20 60 0,0
31.05.2020 11:00:00 23,4 14,1 27,9 20,9 17,6 8 4 21 11 O 1012,9 20 60 0,0
31.05.2020 10:00:00 21,0 13,4 23,5 21,0 17,6 12 7 24 13 ONO 1013,3 20 60 0,0
31.05.2020 09:00:00 19,2 12,9 20,0 21,0 17,6 13 7 24 13 ONO 1013,6 20 60 0,0
31.05.2020 08:00:00 17,3 12,0 15,9 21,1 17,6 12 7 22 12 ONO 1013,9 20 60 0,0
31.05.2020 07:00:00 15,6 11,8 13,6 21,2 17,6 6 3 16 9 O 1014,1 20 24 0,0
31.05.2020 06:00:00 15,3 11,5 13,4 21,3 17,6 10 5 17 9 ONO 1013,6 20 0 0,0
31.05.2020 05:00:00 15,5 11,9 13,4 21,3 17,6 11 6 16 9 O 1013,3 20 0 0,0
31.05.2020 04:00:00 16,0 12,0 13,9 21,4 17,6 9 5 16 8 ONO 1013,3 20 0 0,0
31.05.2020 03:00:00 16,0 12,5 14,5 21,4 17,6 8 4 14 8 O 1013,9 20 0 0,0
31.05.2020 02:00:00 17,5 12,8 14,9 21,4 17,6 11 6 17 9 ONO 1014,0 20 0 0,0
31.05.2020 01:00:00 17,9 13,4 15,2 21,4 17,5 8 4 17 9 ONO 1014,3 20 0 0,0
31.05.2020 00:00:00 17,8 13,1 15,7 21,4 17,6 7 4 12 6 O 1014,1 20 0 0,0
30.05.2020 23:00:00 19,7 13,2 17,1 21,4 17,5 2 1 18 10 ZO 1013,8 20 0 0,0
30.05.2020 22:00:00 21,2 13,6 19,8 21,4 17,5 11 6 24 13 ZZO 1013,0 20 1 0,0
30.05.2020 21:00:00 23,1 13,8 22,5 21,3 17,5 16 8 26 14 Z 1012,3 20 22 0,0
30.05.2020 20:00:00 25,0 13,2 25,3 21,3 17,5 14 8 23 13 Z 1012,0 20 52 0,0
30.05.2020 19:00:00 27,7 12,5 32,9 21,2 17,5 9 5 18 10 ZW 1011,8 20 60 0,0
30.05.2020 18:00:00 27,5 11,9 34,4 21,1 17,5 6 3 16 9 Z 1012,1 20 60 0,0
30.05.2020 17:00:00 26,9 12,9 26,4 21,0 17,5 6 3 13 7 OZO 1012,5 19 28 0,0
30.05.2020 16:00:00 25,8 11,9 27,1 20,8 17,5 8 4 11 6 O 1013,0 20 12 0,0
30.05.2020 15:00:00 26,5 12,2 29,1 20,8 17,5 4 2 21 11 O 1013,3 20 47 0,0
30.05.2020 14:00:00 25,6 14,1 27,1 20,7 17,5 6 3 14 7 ZZW 1013,9 20 34 0,0
30.05.2020 13:00:00 25,5 13,0 29,7 20,7 17,5 8 4 16 8 Z 1014,4 20 54 0,0
30.05.2020 12:00:00 23,9 14,0 29,0 20,8 17,5 4 2 15 8 ZZW 1015,0 20 57 0,0
30.05.2020 11:00:00 22,5 13,6 27,0 20,8 17,5 7 4 19 10 O 1015,3 20 60 0,0
30.05.2020 10:00:00 20,5 12,5 23,3 20,9 17,4 11 6 19 11 ONO 1015,7 20 60 0,0
30.05.2020 09:00:00 18,6 11,7 19,7 21,0 17,5 13 7 22 12 ONO 1016,2 20 60 0,0
30.05.2020 08:00:00 17,0 10,8 15,9 21,0 17,5 13 7 21 11 ONO 1016,3 20 60 0,0
30.05.2020 07:00:00 15,7 10,5 14,2 21,1 17,5 13 7 23 12 ONO 1016,4 20 23 0,0
30.05.2020 06:00:00 15,5 10,3 14,0 21,2 17,4 13 7 20 11 ONO 1016,3 20 0 0,0
30.05.2020 05:00:00 15,9 10,2 14,3 21,2 17,4 11 6 19 11 ONO 1016,5 20 0 0,0
30.05.2020 04:00:00 16,2 10,7 14,9 21,3 17,4 11 6 22 12 ONO 1016,7 20 0 0,0
30.05.2020 03:00:00 16,9 11,4 15,9 21,3 17,4 16 9 24 13 ONO 1016,6 20 0 0,0
30.05.2020 02:00:00 17,4 12,3 16,2 21,3 17,4 13 7 23 12 ONO 1016,7 20 0 0,0
30.05.2020 01:00:00 18,4 13,0 16,6 21,4 17,4 10 6 21 11 ONO 1016,9 20 0 0,0
30.05.2020 00:00:00 18,8 13,2 17,0 21,4 17,4 9 5 16 9 ONO 1016,7 20 0 0,0
29.05.2020 23:00:00 19,5 12,7 17,7 21,3 17,4 9 5 22 12 O 1016,5 20 0 0,0
29.05.2020 22:00:00 21,2 12,6 19,4 21,3 17,4 10 6 39 21 O 1015,5 20 0 0,0
29.05.2020 21:00:00 24,8 9,9 22,8 21,2 17,4 5 3 10 5 Z 1013,8 20 60 0,0
29.05.2020 20:00:00 27,3 7,2 29,4 21,1 17,4 7 4 18 10 N 1013,4 20 60 0,0
29.05.2020 19:00:00 27,4 7,8 30,7 21,0 17,3 9 5 19 10 N 1013,3 20 58 0,0
29.05.2020 18:00:00 27,8 10,0 34,4 20,9 17,3 8 4 19 10 NNO 1013,4 20 60 0,0
29.05.2020 17:00:00 28,5 10,2 33,8 20,8 17,3 4 2 18 10 W 1013,7 20 60 0,0
29.05.2020 16:00:00 28,5 6,0 32,5 20,7 17,4 8 4 16 9 WZW 1014,1 20 55 0,0
29.05.2020 15:00:00 27,3 11,7 30,4 20,6 17,3 3 2 16 8 Z 1014,6 20 34 0,0
29.05.2020 14:00:00 26,3 11,2 32,3 20,6 17,3 4 2 19 10 NNW 1015,3 20 30 0,0
29.05.2020 13:00:00 26,4 13,2 32,2 20,6 17,3 6 3 14 8 NNW 1015,8 20 55 0,0
29.05.2020 12:00:00 25,6 12,1 31,1 20,6 17,3 3 1 11 6 ZO 1016,0 20 60 0,0
29.05.2020 11:00:00 24,1 12,1 30,9 20,6 17,3 4 2 10 6 NO 1016,6 20 60 0,0
29.05.2020 10:00:00 22,6 10,7 25,5 20,7 17,3 3 1 13 7 NNO 1017,1 20 60 0,0
29.05.2020 09:00:00 20,5 10,3 21,5 20,8 17,3 8 5 15 8 ONO 1017,4 20 60 0,0
29.05.2020 08:00:00 18,4 10,0 15,6 20,8 17,3 7 4 11 6 NO 1017,8 20 60 0,0
29.05.2020 07:00:00 15,5 10,7 12,4 20,9 17,3 5 3 8 4 OZO 1018,1 20 22 0,0
29.05.2020 06:00:00 16,6 9,8 14,4 21,0 17,3 8 4 15 8 NO 1018,0 20 0 0,0
29.05.2020 05:00:00 15,8 10,3 14,1 21,0 17,3 12 6 15 8 ONO 1018,2 20 0 0,0
29.05.2020 04:00:00 15,7 10,9 13,9 21,1 17,3 10 5 14 7 ONO 1018,5 20 0 0,0
29.05.2020 03:00:00 16,5 11,2 14,5 21,1 17,3 10 6 16 8 ONO 1019,0 20 0 0,0
29.05.2020 02:00:00 16,4 11,5 15,1 21,1 17,3 11 6 13 7 O 1019,3 20 0 0,0
29.05.2020 01:00:00 17,0 11,9 15,1 21,2 17,3 9 5 12 7 O 1019,6 20 0 0,0
29.05.2020 00:00:00 18,5 12,0 15,3 21,2 17,3 8 4 19 10 OZO 1019,7 20 0 0,0
28.05.2020 23:00:00 19,5 11,3 16,0 21,1 17,2 0 0 3 2 N 1019,6 20 0 0,0
28.05.2020 22:00:00 21,0 10,8 17,0 21,0 17,2 3 2 10 5 ZZW 1019,3 5 0 0,0
28.05.2020 21:00:00 26,7 8,6 24,8 21,0 17,2 5 3 12 7 NW 1018,8 20 60 0,0
28.05.2020 20:00:00 27,7 8,5 29,5 20,9 17,2 9 5 19 10 NNW 1019,0 20 60 0,0
28.05.2020 19:00:00 28,3 10,9 34,0 20,7 17,2 5 3 18 10 NNW 1019,2 20 60 0,0
28.05.2020 18:00:00 28,5 10,7 33,7 20,6 17,2 6 3 23 12 NNO 1019,8 18 60 0,0
28.05.2020 17:00:00 28,8 10,9 35,0 20,5 17,2 5 3 17 9 NNO 1020,3 20 60 0,0
28.05.2020 16:00:00 28,1 9,4 35,3 20,4 17,2 6 3 21 11 NW 1021,2 20 60 0,0
28.05.2020 15:00:00 27,6 8,9 34,8 20,3 17,2 5 3 18 10 NNW 1021,9 20 60 0,0
28.05.2020 14:00:00 27,1 9,9 33,2 20,2 17,2 6 3 16 9 NO 1022,6 20 60 0,0
28.05.2020 13:00:00 26,1 8,6 32,7 20,2 17,2 6 3 14 8 NNO 1023,4 20 60 0,0
28.05.2020 12:00:00 25,7 10,3 31,6 20,3 17,2 4 2 11 6 Z 1024,0 20 60 0,0
28.05.2020 11:00:00 24,1 10,4 28,3 20,4 17,2 4 2 13 7 O 1024,6 20 60 0,0
28.05.2020 10:00:00 21,5 9,4 23,4 20,4 17,2 9 5 21 11 ONO 1025,2 20 60 0,0
28.05.2020 09:00:00 19,2 9,1 19,9 20,5 17,2 13 7 23 12 ONO 1025,8 20 60 0,0
28.05.2020 08:00:00 17,3 9,9 14,7 20,5 17,2 8 4 13 7 O 1026,1 20 60 0,0
28.05.2020 07:00:00 14,4 9,8 10,2 20,6 17,1 5 3 9 5 ONO 1026,3 20 22 0,0
28.05.2020 06:00:00 13,9 9,5 10,7 20,7 17,2 3 2 10 6 O 1026,3 20 0 0,0
28.05.2020 05:00:00 14,5 9,9 11,4 20,7 17,2 3 2 8 5 ONO 1026,2 20 0 0,0
28.05.2020 04:00:00 14,3 10,5 12,2 20,8 17,1 5 3 9 5 ONO 1026,5 20 0 0,0
28.05.2020 03:00:00 14,8 10,8 12,7 20,8 17,1 4 2 8 5 O 1026,9 20 0 0,0
28.05.2020 02:00:00 16,0 11,2 12,4 20,8 17,1 5 3 9 5 O 1027,0 20 0 0,0
28.05.2020 01:00:00 16,6 11,3 13,3 20,8 17,1 2 1 4 2 OZO 1027,1 20 0 0,0
28.05.2020 00:00:00 18,5 11,6 15,0 20,8 17,1 3 2 9 5 ZO 1027,1 20 0 0,0
27.05.2020 23:00:00 19,6 11,4 16,2 20,8 17,1 2 1 4 2 ZZO 1026,7 20 0 0,0
27.05.2020 22:00:00 21,0 13,2 17,9 20,7 17,1 3 2 15 8 Z 1026,0 20 0 0,0
27.05.2020 21:00:00 24,1 13,3 22,9 20,7 17,1 10 5 19 10 ZZO 1025,3 20 58 0,0
27.05.2020 20:00:00 26,3 11,6 27,8 20,5 17,1 10 5 25 14 OZO 1024,7 20 60 0,0
27.05.2020 19:00:00 27,5 11,1 30,4 20,4 17,1 14 8 27 15 O 1024,6 19 60 0,0
27.05.2020 18:00:00 27,6 10,8 26,8 20,3 17,1 17 9 26 14 ONO 1024,8 20 30 0,0
27.05.2020 17:00:00 28,3 12,6 27,6 20,1 17,1 4 2 14 8 Z 1024,8 20 30 0,0
27.05.2020 16:00:00 28,3 12,2 30,1 20,0 17,1 6 4 16 9 O 1025,2 20 53 0,0
27.05.2020 15:00:00 27,6 11,2 34,3 20,0 17,1 7 4 16 9 ZZW 1025,6 20 60 0,0
27.05.2020 14:00:00 26,4 11,3 32,9 19,9 17,1 10 5 27 14 Z 1026,0 20 60 0,0
27.05.2020 13:00:00 25,9 12,4 31,4 19,9 17,1 8 4 22 12 Z 1026,5 20 60 0,0
27.05.2020 12:00:00 24,7 12,0 30,4 19,9 17,1 8 5 22 12 ZZO 1026,7 20 60 0,0
27.05.2020 11:00:00 23,9 11,2 28,2 20,0 17,1 5 3 13 7 ONO 1026,7 18 60 0,0

tt = temperatuur
td = dauwpunt
tt 5cm = temperatuur 5cm
tt -20cm = temperatuur -20cm
tt -100cm = temperatuur -100cm
ff = windsnelheid
fx = windstoten
dd = windrichting
ppp = luchtdruk
vv = zicht
sd = Zonneschijnduur
rr = neerslag

Weerstations in de omgeving